Location: Newark
(29.9790°N, 31.1340°E)
Time: 14:36:53
(UTC+00:00)

Vanguard 3 - Pass Details

Date: 27 January 2020
Orbit: 508 x 3263 km, 33.3° (Epoch: 28 February)

Event Time Altitude Azimuth Distance (km) Brightness Sun altitude
Rises 15:36:20 0° 257° (WSW) 6,813 14.6 -2.6°
Reaches altitude 10° 15:40:36 10° 258° (WSW) 5,984 13.5 -3.4°
Maximum altitude 16:00:46 84° 348° (NNW) 3,174 10.1 -7.6°
Enters shadow 16:16:51 12° 78° (ENE) 4,971 10.4 -10.9°
